weather.gov     
National Weather Service

Terminal Aerodrome Forecast
NWS Homepage
This page is being discontinued on March 12, 2014.
The same data is available at this site. Please update your bookmarks.
Thank you, and we apologize for the inconvenience.
Please send an email to SR-SRH.Webmaster@noaa.gov with any concerns.


Current Version
Previous Version:    01  02  03  04  05  06  07  08  09  10  11  12  13  14  15  16  17  18  19  20  21  22  23  24  25  26  27  
[Printable]
743
FTUS46 KSTO 250500
TAFRBL
TAF
KRBL 250535Z 2506/2606 15012KT P6SM OVC200
     FM251200 16020G35KT P6SM -SHRA OVC025
      TEMPO 2515/2519 3SM -SHRA OVC015
     FM252000 17025G40KT 5SM -SHRA OVC020 PROB30 2520/2524 4SM TSRA
      OVC015CB
     FM260300 16016G25KT P6SM BKN050=


U.S. Dept. of Commerce
NOAA National Weather Service
1325 East West Highway
Silver Spring, MD 20910
E-mail: w-nws.webmaster@noaa.gov
Page last modified: May 16, 2007
NATIONAL WEATHER SERVICE: for Safety, for Work, for Fun - FOR LIFE